Globalstar M085

operational
NORAD ID: 37742 Int'l Des: 2011-033 Owner: GLOBL Country: US Constellation: globalstar
LEOCIRCULAR

About Globalstar M085

Description loading...

Live Position

Loading 3D Globe...

Upcoming Passes

Altitude History

Altitude vs Time

uPlot chart will show altitude changes over time

Two-Line Element Set

1 37742U 11033D 25299.14190330 -.00000068 00000-0 20130-3 0 9993
2 37742 52.0114 185.5387 0000951 88.9020 67.4236 12.62266246660239
Epoch: Oct 26, 2025 • Age: 11 hours

Current Status

Altitude 1419.2 km
Velocity 7.16 km/s
Sub-Earth Point 52.11°N, 24.92°E
Launch Date Jul 13, 2011
Age 14.2 years
Type communications

Technical Details

Classification Payload
Mass 715.00 kg
Dry Mass 500.00 kg
Total Mass 715.00 kg
Length 4.00 m
Diameter 2.00 m
Span 12.00 m
Shape Trap Cyl + 2 Pan
Manufacturer THALR
Bus Type Prisma
Phase Status In Orbit
Owner/State GLOBL/US

Large Constellations

Loading constellations...